Regional Weather Roundup
Issued by NWS Mt. Holly, NJ

Home | Current Version | Previous Version | Text Only | Print | Product List | Glossary On
Versions: 1 2 3 4 5 6 7 8 9 10 11 12 13 14 15 16 17 18 19 20 21 22 23 24 25 26 27 28 29 30 31 32 33 34 35 36 37 38 39 40 41 42 43 44 45 46 47 48 49 50
000
ASUS41 KPHI 060412
RWRPHI

REGIONAL WEATHER ROUNDUP
NATIONAL WEATHER SERVICE MOUNT HOLLY NJ
1200 AM EDT MON JUL 06 2015

NOTE:  "FAIR" INDICATES FEW OR NO CLOUDS BELOW 12,000 FEET WITH NO
SIGNIFICANT WEATHER AND/OR OBSTRUCTIONS TO VISIBILITY.

 * = STATION DOES NOT REPORT PRECIPITATION (E.G. RAIN, SNOW, ETC.)
        OR FOG.

NJZ015>026-060500-
SOUTHERN NEW JERSEY

CITY           SKY/WX    TMP DP  RH WIND       PRES   REMARKS
POMONA         CLOUDY    73  67  81 CALM      30.16S
RIO GRANDE*    CLOUDY    73  66  78 SE6       30.16S
MILLVILLE      CLOUDY    70  68  93 CALM      30.15F
WRIGHTSTOWN    CLOUDY    69  67  93 S5        30.13S
MOUNT HOLLY    CLOUDY    70  66  87 CALM      30.15S
TRENTON        MOCLDY    73  66  78 CALM      30.14S

$$
NJZ001>014-060500-
NORTHERN NEW JERSEY

CITY           SKY/WX    TMP DP  RH WIND       PRES   REMARKS
SUSSEX         CLEAR     64  62  93 CALM      30.16S
ANDOVER*         N/A     64  62  93 CALM      30.17R
MORRISTOWN     CLEAR     64  61  88 CALM      30.15S
NEWARK         PTCLDY    73  66  78 S5        30.14R
TETERBORO      CLEAR     72  64  76 CALM      30.13S
CALDWELL       CLEAR     68  62  81 CALM      30.15S
SOMERVILLE     PTCLDY    65  62  90 CALM      30.13R FOG
ALLAIRE*       PTCLDY    70  63  78 SW5       30.16R
TOMS RIVER*    MOCLDY    68  64  88 CALM      30.16S

$$
PAZ043-044-047-054-055-060>062-066>071-060500-
EASTERN PENNSYLVANIA

CITY           SKY/WX    TMP DP  RH WIND       PRES   REMARKS
PHILADELPHIA   CLOUDY    74  67  78 S3        30.16R
NORTH PHILA    CLOUDY    76  65  68 SW6       30.16S
BLUE BELL      CLOUDY    73  68  83 SW6       30.15S
DOYLESTOWN     MOCLDY    67  65  93 CALM      30.15S
QUAKERTOWN*    MOCLDY    66  66 100 CALM      30.17R
POTTSTOWN      CLOUDY    69  67  93 CALM      30.17R
LANCASTER      CLOUDY    70  67  90 CALM      30.15R
COATESVILLE    CLOUDY    70  68  94 CALM      30.18R
READING        CLOUDY    70  66  87 CALM      30.14R
ALLENTOWN      MOCLDY    68  64  87 CALM      30.15R
MOUNT POCONO   PTCLDY    59  56  89 NE3       30.21S
HAZLETON       CLOUDY    61  61 100 CALM      30.23R FOG
WILKES BARRE   PTCLDY    66  58  75 E7        30.17R

$$
DEZALL-MDZ008-012-015-019-020-060500-
DELAWARE AND EASTERN MARYLAND

CITY           SKY/WX    TMP DP  RH WIND       PRES   REMARKS
WILMINGTON     CLOUDY    73  69  87 S5        30.16R
DOVER          CLOUDY    72  72 100 SE6       30.13S
GEORGETOWN     CLOUDY    72  70  93 CALM      30.15F
EASTON         CLOUDY   N/A N/A N/A S9        30.17F
PATUXENT       CLOUDY    75  72  90 SE6       30.12F
OCEAN CITY     CLOUDY    74  71  91 SE5       30.14F
WALLOPS ISLAND CLOUDY    75  72  90 SE6       30.15S
CAMBRIDGE      CLOUDY    77  72  83 E5        30.13F
SALISBURY      CLOUDY    72  70  93 CALM      30.14F

$$
PAZ001-021-NYZ056-072-MDZ011-DCZ001-060500-
OTHER NEARBY LOCATIONS

CITY           SKY/WX    TMP DP  RH WIND       PRES   REMARKS
HARRISBURG     CLOUDY    71  67  87 CALM      30.13S
STATE COLLEGE  CLOUDY    67  62  85 N3        30.16S
WILLIAMSPORT   CLOUDY    64  60  87 CALM      30.15R
BINGHAMTON     PTCLDY    68  53  58 CALM      30.19S
NEW YORK CITY  CLEAR     74  64  71 CALM      30.17S
BALTIMORE      CLOUDY    74  69  85 CALM      30.13S
WASHINGTON DC  CLOUDY    78  71  79 S5        30.13S

$$



USA.gov is the U.S. government's official web portal to all federal, state and local government web resources and services.